User: anonymous   Login
Location: Unspecified
(0.0000°N, 0.0000°E)
Time: 22:42:53
(UTC+00:00)
Language:

JB-3 - Orbit

View from above orbital plane
View from above orbital plane
View from above satellite
View from above satellite

Ground track
Ground track

The orbit data is extracted from the following two-line orbital elements,

1 28470U 04044A   18291.29913178  .00000776  00000-0  61342-4 0  9994
2 28470  97.3851 196.5501 0046100 124.2853 236.2751 15.02595903766249
Epoch (UTC): 18 October 2018 07:10:44
Eccentricity: 0.0046100
inclination: 97.3851°
perigee height: 527 km
apogee height: 591 km
right ascension of ascending node: 196.5501°
argument of perigee: 124.2853°
revolutions per day: 15.02595903
mean anomaly at epoch: 236.2751°
orbit number at epoch: 76624

The dashed part of the orbit path shows where the satellite is in the earth's shadow,  

DLR